Regional Weather Roundup
Issued by NWS Upton, NY

Current Version | Previous Version | Text Only | Print | Product List | Glossary On
Versions: 1 2 3 4 5 6 7 8 9 10 11 12 13 14 15 16 17 18 19 20 21 22 23 24 25 26 27 28 29 30 31 32 33 34 35 36 37 38 39 40 41 42 43 44 45 46 47 48 49 50
356
ASUS41 KOKX 240609
RWROKX

REGIONAL WEATHER ROUNDUP
NATIONAL WEATHER SERVICE NEW YORK NY
200 AM EDT SUN SEP 24 2017

NOTE: "FAIR" INDICATES FEW OR NO CLOUDS BELOW 12,000 FEET WITH NO
SIGNIFICANT WEATHER AND/OR OBSTRUCTIONS TO VISIBILITY.

NYZ071-072-176-178-NJZ106-104-240700-
NEW YORK CITY METRO AREA

CITY           SKY/WX    TMP DP  RH WIND       PRES   REMARKS
Central Park   CLEAR     71  57  61 CALM      30.07S
Bronx Bot Gard   N/A     68  55  64 N1        30.06R
LaGuardia APRT CLEAR     73  58  59 NE3       30.03S
Kennedy INTL   CLEAR     69  57  65 N5        30.05S
Breezy Point     N/A     72 N/A N/A N5          N/A
Newark/Liberty CLEAR     73  58  59 NE3       30.04S
Teterboro      CLEAR     70  58  65 CALM      30.03S
$$

NYZ177-179-078>081-240700-
LONG ISLAND NEW YORK

CITY           SKY/WX    TMP DP  RH WIND       PRES   REMARKS
Jones Beach      N/A     66 N/A N/A N6          N/A
Matinecock PT    N/A     70 N/A N/A W2          N/A
Farmingdale    CLEAR     66  62  87 CALM      30.04S
MacArthur/ISP  CLEAR     64  64 100 CALM      30.03F
Shirley        CLEAR     64  62  93 CALM      30.04S
Mt Sinai Harb    N/A    N/A N/A N/A MISG        N/A
Westhampton    CLOUDY    56  54  93 CALM      30.05S
East Hampton   FAIR      56  55  96 CALM      30.03S
Montauk          N/A     64  63  96 NW3       30.04S
$$

NYZ052-065-067-240700-
HUDSON VALLEY

CITY           SKY/WX    TMP DP  RH WIND       PRES   REMARKS
White Plains   CLEAR     67  56  67 NW7       30.04F
Larchmont Harb   N/A     70 N/A N/A CALM        N/A
Croton On Huds   N/A     66 N/A N/A MISG        N/A
Newburgh       CLEAR     63  63 100 CALM      30.09S
Montgomery     CLEAR     60  59  96 S3        30.07S
Poughkeepsie   CLEAR     60  57  89 CALM      30.06S
Albany         CLEAR     63  59  87 CALM      30.07F
$$

NJZ001-105-106-008-010-013-015-019>022-104-240700-
NEW JERSEY

CITY           SKY/WX    TMP DP  RH WIND       PRES   REMARKS
Newark/Liberty CLEAR     73  58  59 NE3       30.04S
Teterboro      CLEAR     70  58  65 CALM      30.03S
Caldwell       CLEAR     64  63  96 CALM      30.06S
Somerville     NOT AVBL
Linden         FAIR      70  58  65 CALM      30.04S
Perth Amboy      N/A     70 N/A N/A NW5         N/A
Sussex         CLEAR     61  60  97 CALM      30.08S
Andover          N/A     60  60 100 CALM      30.09S
Trenton        CLEAR     66  60  81 N5        30.04F
Millville      CLEAR     63  62  97 CALM      30.03S
Atlantic City  CLEAR     64  62  93 CALM      30.03S
Wrightstown    CLEAR     62  61  94 CALM      30.01F
Toms River     CLEAR     59  56  89 CALM      30.04F
Belmar         CLEAR     64  60  87 W3        30.05S
$$

PAZ047>061-062-071-240700-
EASTERN PENNSYLVANIA

CITY           SKY/WX    TMP DP  RH WIND       PRES   REMARKS
Philadelphia   CLEAR     72  59  63 N3        30.04S
Allentown      CLEAR     66  60  81 CALM      30.08S
Scranton       CLEAR     63  60  90 CALM      30.12S
$$

CTZ002-004>006-009-010-012-RIZ004-006-007-MAZ004-011-015-240700-
SOUTHERN NEW ENGLAND
 IN CT

CITY           SKY/WX    TMP DP  RH WIND       PRES   REMARKS
Bradley INTL   CLEAR     63  59  87 CALM      30.04F
Hartford       CLEAR     63  61  93 CALM      30.04S
Danbury        CLEAR     61  58  90 CALM      30.07F
Wtrbury/Oxford CLEAR     64  57  78 NW3       30.07S
Norwalk Harbor   N/A     68 N/A N/A N3          N/A
Bridgeport     CLEAR     67  60  78 CALM      30.03F
Meriden        CLEAR     58  57  97 CALM      30.04S
New Haven      CLEAR     61  58  90 CALM      30.04S
Chester        FAIR      63  63 100 CALM      30.04S
Groton         CLEAR     62  60  93 CALM      30.02F FOG
Wilimantic     CLEAR     61  59  93 CALM      30.04F

 IN RI

CITY           SKY/WX    TMP DP  RH WIND       PRES   REMARKS
Providence     CLEAR     63  62  97 CALM      30.03F
Block Island   PTCLDY    63  62  97 NW6       30.02F
Westerly       CLEAR     62  60  93 CALM      30.03F
 IN MA

CITY           SKY/WX    TMP DP  RH WIND       PRES   REMARKS
Boston         PTCLDY    62  61  96 CALM      30.02F
Worcester      CLEAR     66  55  67 NW7       30.06F
Westfield      CLEAR     62  59  90 N3        30.05S
Provincetown   FOG       59  58  96 NW5       30.03S VSB 1/4
Nantucket      FOG       62  62 100 N14       29.99S VSB 1/2
$$

ANZ330-335-338-340-345-350-353-355-240700-
COASTAL MARINE OBSERVATIONS


STATION/POSITION TIME  SKY/WX   TEMP    WIND        PRES    VSBY  WAVE
                                AIR SEA DIR/SP/G                  HT/PER
                 (UTC)          (F)     (DEG/KT/KT) (MB)    (MI)  (FT/S)
NY HARB ENTRANCE 0450            72 71  300/  4/  6 1016.5          4/13
20 S FIRE ISLAND 0450            67 67  180/  4/  4 1017.1          4/13
GREAT SOUTH BAY  0515            69 70   CALM  /  2   N/A
23 SSW MONTAUK P 0450            62 63              1017.2          4/13
15 E BARNEGAT LI 0530               70                N/A           5/13
HUDSON CANYON    0450            67 68  310/  4/  6 1016.0          5/13
KINGS POINT      0524            69 72     CALM     1018.1
EXECUTION ROCKS  0545            72      CALM  /  2   N/A
WESTERN LI SOUND NOT AVBL
CENTRAL LI SOUND 0500            70     290/  2/  2   N/A           0
EASTERN LI SOUND NOT AVBL
ROBBINS REEF     0524            76     340/  9/ 10 1017.9
$$


>>>>>>>>>>>>>>>>>>>>>>>>>>>> KEY <<<<<<<<<<<<<<<<<<<<<<<<<<<
>                                                          <
>     SKY/WX - Sky Condition/Present Weather               <
>     TMP    - Temperature in Fahrenheit                   <
>     DP     - Dew Point in Fahrenheit                     <
>     RH     - Relative Humidity in Percent                <
>     WIND   - Direction (from) and Speed in MPH           <
>     PRES   - Mean Sea Level Pressure (inches of Hg)      <
>     WCI    - Wind Chill Index                            <
>     VSB    - VISIBILITY IN MILES                         <
>     HX     - HEAT INDEX                                  <
>     TC     - TEMPERATURE IN CELSIUS                      <
>     VRB    - VARIABLE WIND DIRECTION                     <
>                                                          <
>>>>>>>>>>>>>>>>>>>>>>>>>>>> KEY <<<<<<<<<<<<<<<<<<<<<<<<<<<




USA.gov is the U.S. government's official web portal to all federal, state and local government web resources and services.